Date String (YYYY-MM-DD hh:mm:ss) UTC,Instrument flags,Ambient pressure (hPa),Sample flow (lpm),Bypass flow (lpm),Sample temperature (°C),Ambient temperature (°C),ASC tube jacket temperature (°C),LED temperature (°C),Box temperature (°C),Sample RH (%),Span deviation,Mass concentration (μg/m³),Mass concentration (μg/m³),Mass concentration (μg/m³)
DateTimeUTC,F1_M11,P_M11,Q1_M11,Q2_M11,T1_M11,T2_M11,T3_M11,T4_M11,T5_M11,U1_M11,ZSPAN_M11,X0_M11,X2_M11,X1_M11
2022-03-01 13:00:00,,0828.7,5.01,0.00,25.0,24.3,00.0,34.1,26.8,09.2,0000.0,0003.70,0001.65,0000.79
2022-03-01 13:01:00,,0828.7,4.99,0.00,25.0,24.3,00.0,34.1,26.8,09.1,0000.0,0003.79,0001.67,0000.80
2022-03-01 13:02:00,,0828.7,5.01,0.00,25.0,24.3,00.0,34.1,26.8,09.1,0000.0,0003.84,0001.69,0000.79
2022-03-01 13:03:00,,0828.7,5.01,0.00,25.0,24.3,00.0,34.1,26.8,09.1,0000.0,0003.48,0001.63,0000.78
2022-03-01 13:04:00,,0828.8,4.99,0.00,25.0,24.3,00.0,34.1,26.7,09.2,0000.0,0003.46,0001.62,0000.78
2022-03-01 13:05:00,,0829.1,5.01,0.00,25.0,24.2,00.0,34.1,26.7,09.2,0000.0,0003.64,0001.64,0000.79
2022-03-01 13:06:00,,0829.2,5.00,0.00,25.0,24.2,00.0,34.1,26.7,09.2,0000.0,0005.30,0001.72,0000.80
2022-03-01 13:07:00,,0829.3,5.00,0.00,24.9,24.2,00.0,34.0,26.7,09.1,0000.0,0007.38,0001.84,0000.82
2022-03-01 13:08:00,,0829.3,5.00,0.00,24.9,24.2,00.0,34.0,26.7,09.1,0000.0,0008.00,0001.93,0000.83
2022-03-01 13:09:00,,0828.9,5.00,0.00,24.9,24.2,00.0,34.0,26.7,09.2,0000.0,0008.27,0002.07,0000.85
2022-03-01 13:10:00,,0828.9,5.00,0.00,24.9,24.2,00.0,34.0,26.7,09.2,0000.0,0008.49,0002.12,0000.87
2022-03-01 13:11:00,,0829.0,5.00,0.00,24.9,24.1,00.0,34.0,26.7,09.2,0000.0,0010.16,0002.27,0000.90
2022-03-01 13:12:00,,0828.9,5.01,0.00,24.9,24.1,00.0,34.0,26.7,09.3,0000.0,0011.18,0002.43,0000.94
2022-03-01 13:13:00,,0829.0,5.00,0.00,24.9,24.1,00.0,34.0,26.7,09.3,0000.0,0011.68,0002.64,0000.97
2022-03-01 13:14:00,,0828.9,5.00,0.00,24.9,24.1,00.0,34.0,26.7,09.3,0000.0,0013.25,0002.77,0001.00
2022-03-01 13:15:00,,0829.0,4.99,0.00,24.9,24.1,00.0,34.0,26.7,09.3,0000.0,0014.10,0002.86,0001.00
2022-03-01 13:16:00,,0829.0,5.00,0.00,24.9,24.1,00.0,34.0,26.7,09.3,0000.0,0014.11,0002.88,0001.00
2022-03-01 13:17:00,,0828.9,5.01,0.00,24.8,24.1,00.0,34.0,26.6,09.2,0000.0,0013.41,0002.81,0000.98
2022-03-01 13:18:00,,0828.9,5.01,0.00,24.8,24.1,00.0,33.9,26.6,09.2,0000.0,0012.47,0002.74,0000.96
2022-03-01 13:19:00,,0829.0,5.01,0.00,24.8,24.1,00.0,33.9,26.6,09.2,0000.0,0012.01,0002.68,0000.94
2022-03-01 13:20:00,,0829.0,5.00,0.00,24.8,24.1,00.0,33.9,26.6,09.2,0000.0,0011.92,0002.58,0000.92
2022-03-01 13:21:00,,0829.1,5.00,0.00,24.8,24.1,00.0,33.9,26.6,09.2,0000.0,0011.68,0002.52,0000.91
2022-03-01 13:22:00,,0829.1,5.01,0.00,24.8,24.1,00.0,33.9,26.6,09.2,0000.0,0010.23,0002.45,0000.89
2022-03-01 13:23:00,,0829.1,4.99,0.00,24.8,24.1,00.0,33.9,26.6,09.1,0000.0,0009.66,0002.29,0000.86
2022-03-01 13:24:00,,0829.2,5.00,0.00,24.8,24.1,00.0,33.9,26.6,09.1,0000.0,0009.24,0002.09,0000.83
2022-03-01 13:25:00,,0829.2,5.01,0.00,24.8,24.1,00.0,33.9,26.6,09.2,0000.0,0007.54,0001.94,0000.81
2022-03-01 13:26:00,,0829.2,5.00,0.00,24.8,24.1,00.0,33.9,26.6,09.2,0000.0,0006.19,0001.84,0000.80
2022-03-01 13:27:00,,0829.3,5.01,0.00,24.8,24.1,00.0,33.9,26.6,09.4,0000.0,0007.24,0001.78,0000.79
2022-03-01 13:28:00,,0829.3,4.99,0.00,24.8,24.1,00.0,33.9,26.6,09.3,0000.0,0007.19,0001.76,0000.78
2022-03-01 13:29:00,,0829.3,5.00,0.00,24.8,24.1,00.0,33.9,26.6,09.3,0000.0,0006.81,0001.76,0000.78
2022-03-01 13:30:00,,0829.4,5.01,0.00,24.8,24.1,00.0,33.8,26.6,09.2,0000.0,0006.75,0001.76,0000.79
2022-03-01 13:31:00,,0829.3,5.01,0.00,24.7,24.1,00.0,33.8,26.6,09.3,0000.0,0006.62,0001.77,0000.79
2022-03-01 13:32:00,,0829.4,4.98,0.00,24.7,24.1,00.0,33.8,26.6,09.3,0000.0,0006.72,0001.77,0000.78
2022-03-01 13:33:00,,0829.4,5.00,0.00,24.7,24.0,00.0,33.8,26.6,09.4,0000.0,0006.99,0001.77,0000.78
2022-03-01 13:34:00,,0829.5,5.01,0.00,24.7,24.0,00.0,33.8,26.5,09.3,0000.0,0006.46,0001.81,0000.79
2022-03-01 13:35:00,,0829.5,5.00,0.00,24.7,24.0,00.0,33.8,26.6,09.4,0000.0,0007.38,0001.79,0000.79
2022-03-01 13:36:00,,0829.5,5.00,0.00,24.7,24.0,00.0,33.8,26.5,09.6,0000.0,0007.48,0001.81,0000.80
2022-03-01 13:37:00,,0829.5,5.00,0.00,24.7,24.0,00.0,33.8,26.6,09.4,0000.0,0007.50,0001.84,0000.80
2022-03-01 13:38:00,,0829.4,4.98,0.00,24.7,24.0,00.0,33.8,26.6,09.4,0000.0,0006.66,0001.79,0000.80
2022-03-01 13:39:00,,0829.4,5.00,0.00,24.7,24.0,00.0,33.8,26.6,09.4,0000.0,0005.86,0001.77,0000.80
2022-03-01 13:40:00,,0829.4,5.00,0.00,24.7,24.1,00.0,33.8,26.6,09.2,0000.0,0005.88,0001.78,0000.81
2022-03-01 13:41:00,,0829.4,4.98,0.00,24.8,24.1,00.0,33.8,26.6,09.1,0000.0,0005.85,0001.80,0000.82
2022-03-01 13:42:00,,0829.4,5.00,0.00,24.8,24.1,00.0,33.8,26.6,09.2,0000.0,0005.93,0001.81,0000.83
2022-03-01 13:43:00,,0829.4,5.00,0.00,24.8,24.1,00.0,33.8,26.6,09.3,0000.0,0005.80,0001.81,0000.84
2022-03-01 13:44:00,,0829.5,5.00,0.00,24.8,24.1,00.0,33.8,26.6,09.4,0000.0,0005.19,0001.73,0000.82
2022-03-01 13:45:00,,0829.5,5.00,0.00,24.8,24.1,00.0,33.8,26.6,09.4,0000.0,0004.69,0001.69,0000.82
2022-03-01 13:46:00,,0829.5,5.01,0.00,24.8,24.1,00.0,33.8,26.7,09.4,0000.0,0003.71,0001.68,0000.82
2022-03-01 13:47:00,,0829.5,5.00,0.00,24.8,24.1,00.0,33.8,26.7,09.4,0000.0,0003.44,0001.65,0000.81
2022-03-01 13:48:00,,0829.5,5.00,0.00,24.8,24.1,00.0,33.8,26.6,09.1,0000.0,0004.10,0001.67,0000.81
2022-03-01 13:49:00,,0829.5,5.00,0.00,24.8,24.1,00.0,33.8,26.6,08.9,0000.0,0004.49,0001.69,0000.81
2022-03-01 13:50:00,,0829.5,4.99,0.00,24.8,24.1,00.0,33.8,26.6,08.8,0000.0,0005.27,0001.71,0000.82
2022-03-01 13:51:00,,0829.5,5.00,0.00,24.8,24.1,00.0,33.8,26.6,08.8,0000.0,0005.05,0001.61,0000.81
2022-03-01 13:52:00,,0829.4,5.00,0.00,24.8,24.1,00.0,33.8,26.6,08.8,0000.0,0005.01,0001.54,0000.80
2022-03-01 13:53:00,,0829.4,4.99,0.00,24.8,24.1,00.0,33.8,26.6,08.9,0000.0,0004.89,0001.51,0000.79
2022-03-01 13:54:00,,0829.5,5.01,0.00,24.8,24.1,00.0,33.8,26.6,08.8,0000.0,0004.75,0001.47,0000.78
2022-03-01 13:55:00,,0829.5,5.01,0.00,24.8,24.1,00.0,33.8,26.6,08.8,0000.0,0004.84,0001.48,0000.79
2022-03-01 13:56:00,,0829.5,5.01,0.00,24.8,24.1,00.0,33.8,26.6,08.7,0000.0,0004.64,0001.40,0000.78
2022-03-01 13:57:00,,0829.4,5.00,0.00,24.8,24.1,00.0,33.8,26.6,08.7,0000.0,0004.60,0001.35,0000.77
2022-03-01 13:58:00,,0829.4,5.00,0.00,24.7,24.1,00.0,33.8,26.6,08.7,0000.0,0004.44,0001.35,0000.77
2022-03-01 13:59:00,,0829.4,4.99,0.00,24.8,24.1,00.0,33.8,26.6,08.7,0000.0,0003.80,0001.28,0000.76
